| time (UTC) | temp F | wind direction | speed MPH | gust MPH | rain 1hr in | rain 24hr in | rain mn in | humidity % | barometer mb |
| 20260510164549 | 76 | 0 | 13.0 | 22.0 | 0.00 | 0.04 | 0.04 | 64 | 1015.9 |
| 20260510163548 | 79 | 203 | 4.0 | 8.0 | 0.00 | 0.04 | 0.04 | 66 | 1014.8 |
| 20260510162548 | 79 | 113 | 4.0 | 9.0 | 0.00 | 0.04 | 0.04 | 65 | 1014.3 |
| 20260510161549 | 80 | 158 | 5.0 | 12.0 | 0.00 | 0.04 | 0.04 | 64 | 1013.8 |
| 20260510160548 | 79 | 158 | 6.0 | 13.0 | 0.00 | 0.04 | 0.04 | 65 | 1013.4 |
| 20260510155608 | 79 | 158 | 5.0 | 13.0 | 0.00 | 0.04 | 0.04 | 66 | 1013.1 |
| 20260510154629 | 78 | 180 | 5.0 | 12.0 | 0.00 | 0.04 | 0.04 | 67 | 1012.8 |
| 20260510153548 | 77 | 158 | 6.0 | 11.0 | 0.00 | 0.04 | 0.04 | 67 | 1012.8 |
| 20260510152548 | 76 | 158 | 6.0 | 12.0 | 0.00 | 0.04 | 0.04 | 67 | 1013.0 |
| 20260510151548 | 75 | 158 | 7.0 | 14.0 | 0.00 | 0.04 | 0.04 | 68 | 1012.9 |
| 20260510150548 | 75 | 180 | 6.0 | 12.0 | 0.00 | 0.04 | 0.04 | 70 | 1012.7 |
| 20260510145548 | 73 | 180 | 6.0 | 10.0 | 0.00 | 0.04 | 0.04 | 72 | 1012.7 |
| 20260510144608 | 72 | 135 | 6.0 | 13.0 | 0.00 | 0.04 | 0.04 | 75 | 1012.6 |
| 20260510143548 | 71 | 158 | 6.0 | 13.0 | 0.00 | 0.04 | 0.04 | 77 | 1012.9 |
| 20260510142548 | 70 | 158 | 5.0 | 10.0 | 0.00 | 0.04 | 0.04 | 79 | 1013.2 |
| 20260510141549 | 69 | 180 | 5.0 | 10.0 | 0.00 | 0.04 | 0.04 | 82 | 1013.4 |
| 20260510140608 | 68 | 135 | 7.0 | 14.0 | 0.00 | 0.04 | 0.04 | 83 | 1013.8 |
| 20260510135548 | 67 | 158 | 5.0 | 11.0 | 0.00 | 0.04 | 0.04 | 84 | 1014.1 |
| 20260510134548 | 67 | 158 | 3.0 | 7.0 | 0.00 | 0.04 | 0.04 | 85 | 1014.2 |
| 20260510133548 | 67 | 135 | 5.0 | 8.0 | 0.00 | 0.04 | 0.04 | 85 | 1014.3 |
| 20260510132548 | 67 | 113 | 3.0 | 9.0 | 0.00 | 0.04 | 0.04 | 87 | 1014.2 |
| 20260510131608 | 67 | 113 | 3.0 | 8.0 | 0.00 | 0.04 | 0.04 | 87 | 1014.1 |
| 20260510130548 | 66 | 113 | 6.0 | 10.0 | 0.00 | 0.04 | 0.04 | 88 | 1013.8 |
| 20260510125548 | 66 | 113 | 5.0 | 10.0 | 0.00 | 0.04 | 0.04 | 89 | 1013.5 |
| 20260510124548 | 66 | 113 | 4.0 | 8.0 | 0.00 | 0.04 | 0.04 | 89 | 1013.6 |
| 20260510123548 | 66 | 90 | 2.0 | 7.0 | 0.00 | 0.04 | 0.04 | 90 | 1013.6 |
| 20260510122548 | 65 | 158 | 3.0 | 7.0 | 0.00 | 0.04 | 0.04 | 90 | 1013.4 |
| 20260510121548 | 65 | 113 | 3.0 | 6.0 | 0.00 | 0.04 | 0.04 | 90 | 1013.4 |
| 20260510120608 | 65 | 90 | 1.0 | 5.0 | 0.00 | 0.04 | 0.04 | 90 | 1013.2 |
| 20260510115608 | 65 | 113 | 1.0 | 3.0 | 0.00 | 0.04 | 0.04 | 90 | 1013.2 |
| 20260510114548 | 65 | 113 | 2.0 | 6.0 | 0.00 | 0.04 | 0.04 | 90 | 1013.1 |
| 20260510113548 | 65 | 0.0 | 1.0 | 0.00 | 0.04 | 0.04 | 90 | 1013.1 | |
| 20260510112548 | 65 | 113 | 1.0 | 3.0 | 0.00 | 0.04 | 0.04 | 90 | 1013.0 |
| 20260510111548 | 65 | 90 | 2.0 | 6.0 | 0.00 | 0.04 | 0.04 | 90 | 1012.9 |
| 20260510110608 | 65 | 113 | 2.0 | 6.0 | 0.00 | 0.04 | 0.04 | 89 | 1012.8 |
| 20260510105548 | 65 | 113 | 1.0 | 4.0 | 0.01 | 0.04 | 0.04 | 89 | 1012.8 |
| 20260510104548 | 65 | 113 | 3.0 | 7.0 | 0.03 | 0.04 | 0.04 | 89 | 1012.5 |
| 20260510103548 | 65 | 113 | 1.0 | 5.0 | 0.04 | 0.04 | 0.04 | 88 | 1012.6 |
| 20260510102548 | 65 | 113 | 2.0 | 9.0 | 0.04 | 0.04 | 0.04 | 88 | 1012.8 |
| 20260510101548 | 65 | 68 | 2.0 | 4.0 | 0.04 | 0.04 | 0.04 | 87 | 1012.8 |
| 20260510100548 | 66 | 68 | 3.0 | 8.0 | 0.04 | 0.04 | 0.04 | 86 | 1012.5 |
| 20260510095608 | 67 | 90 | 3.0 | 15.0 | 0.03 | 0.03 | 0.03 | 85 | 1012.5 |
| 20260510094628 | 68 | 68 | 3.0 | 15.0 | 0.01 | 0.01 | 0.01 | 82 | 1012.7 |
| 20260510093548 | 70 | 68 | 4.0 | 10.0 | 0.00 | 0.00 | 0.00 | 77 | 1013.5 |
| 20260510092548 | 70 | 0 | 6.0 | 18.0 | 0.00 | 0.00 | 0.00 | 79 | 1013.3 |
| 20260510091628 | 72 | 23 | 4.0 | 9.0 | 0.00 | 0.00 | 0.00 | 83 | 1012.9 |
| 20260510090608 | 75 | 293 | 2.0 | 5.0 | 0.00 | 0.00 | 0.00 | 87 | 1012.2 |
| 20260510085548 | 75 | 0 | 2.0 | 4.0 | 0.00 | 0.00 | 0.00 | 87 | 1011.9 |
| 20260510084548 | 75 | 113 | 1.0 | 3.0 | 0.00 | 0.00 | 0.00 | 87 | 1011.3 |
| 20260510082548 | 75 | 0 | 2.0 | 6.0 | 0.00 | 0.00 | 0.00 | 86 | 1011.4 |
| 20260510081548 | 74 | 0 | 2.0 | 6.0 | 0.00 | 0.00 | 0.00 | 86 | 1011.2 |
| 20260510080548 | 74 | 135 | 1.0 | 2.0 | 0.00 | 0.00 | 0.00 | 85 | 1010.7 |
| 20260510075608 | 74 | 0.0 | 0.0 | 0.00 | 0.00 | 0.00 | 84 | 1010.3 | |
| 20260510074608 | 75 | 0.0 | 0.0 | 0.00 | 0.00 | 0.00 | 84 | 1010.0 | |
| 20260510073548 | 75 | 0.0 | 1.0 | 0.00 | 0.00 | 0.00 | 84 | 1009.8 | |
| 20260510072548 | 75 | 135 | 2.0 | 6.0 | 0.00 | 0.00 | 0.00 | 83 | 1009.5 |
| 20260510071548 | 75 | 0.0 | 3.0 | 0.00 | 0.00 | 0.00 | 83 | 1009.7 | |
| 20260510070548 | 76 | 23 | 1.0 | 3.0 | 0.00 | 0.00 | 0.00 | 81 | 1010.0 |
| 20260510065548 | 77 | 0 | 3.0 | 5.0 | 0.00 | 0.00 | 0.00 | 80 | 1010.8 |
| 20260510064548 | 76 | 0 | 4.0 | 8.0 | 0.00 | 0.00 | 0.00 | 80 | 1011.0 |
| 20260510063548 | 76 | 0 | 3.0 | 5.0 | 0.00 | 0.00 | 0.00 | 80 | 1011.1 |
| 20260510062548 | 76 | 0 | 2.0 | 6.0 | 0.00 | 0.00 | 0.00 | 80 | 1011.0 |
| 20260510061548 | 76 | 0 | 3.0 | 7.0 | 0.00 | 0.00 | 0.00 | 80 | 1010.9 |
| 20260510060548 | 76 | 113 | 1.0 | 4.0 | 0.00 | 0.00 | 0.00 | 80 | 1009.7 |
| 20260510055608 | 76 | 113 | 4.0 | 9.0 | 0.00 | 0.00 | 0.00 | 81 | 1009.1 |
| 20260510054648 | 76 | 113 | 4.0 | 8.0 | 0.00 | 0.00 | 0.00 | 81 | 1008.9 |
| 20260510053548 | 76 | 113 | 3.0 | 7.0 | 0.00 | 0.00 | 0.00 | 81 | 1008.8 |
| 20260510052548 | 76 | 113 | 5.0 | 10.0 | 0.00 | 0.00 | 0.00 | 81 | 1008.6 |
| 20260510051548 | 76 | 113 | 4.0 | 8.0 | 0.00 | 0.00 | 0.00 | 80 | 1008.7 |
| 20260510050548 | 76 | 113 | 3.0 | 9.0 | 0.00 | 0.00 | 0.00 | 79 | 1008.6 |
| 20260510045549 | 76 | 135 | 5.0 | 12.0 | 0.00 | 0.00 | 0.00 | 77 | 1008.4 |
| 20260510044549 | 76 | 113 | 5.0 | 10.0 | 0.00 | 0.00 | 0.00 | 76 | 1008.3 |
| 20260510043549 | 77 | 113 | 5.0 | 13.0 | 0.00 | 0.00 | 0.00 | 74 | 1008.2 |
| 20260510042609 | 77 | 113 | 4.0 | 9.0 | 0.00 | 0.00 | 0.00 | 72 | 1008.1 |
| 20260510041609 | 77 | 113 | 4.0 | 9.0 | 0.00 | 0.00 | 0.00 | 71 | 1008.4 |
| 20260510040549 | 77 | 113 | 3.0 | 7.0 | 0.00 | 0.00 | 0.00 | 71 | 1008.5 |
| 20260510035609 | 77 | 135 | 3.0 | 5.0 | 0.00 | 0.00 | 0.00 | 70 | 1008.5 |
| 20260510034549 | 78 | 135 | 2.0 | 5.0 | 0.00 | 0.00 | 0.00 | 69 | 1008.4 |
| 20260510033549 | 78 | 113 | 3.0 | 6.0 | 0.00 | 0.00 | 0.00 | 68 | 1008.3 |
| 20260510032609 | 78 | 113 | 3.0 | 6.0 | 0.00 | 0.00 | 0.00 | 67 | 1008.4 |
| 20260510031549 | 79 | 113 | 2.0 | 6.0 | 0.00 | 0.00 | 0.00 | 67 | 1008.6 |
| 20260510030609 | 79 | 113 | 2.0 | 4.0 | 0.00 | 0.00 | 0.00 | 67 | 1008.5 |
| 20260510025549 | 79 | 113 | 1.0 | 4.0 | 0.00 | 0.00 | 0.00 | 67 | 1008.4 |
| 20260510024549 | 79 | 113 | 1.0 | 3.0 | 0.00 | 0.00 | 0.00 | 67 | 1008.4 |
| 20260510023549 | 79 | 113 | 1.0 | 3.0 | 0.00 | 0.00 | 0.00 | 66 | 1008.2 |
| 20260510022549 | 79 | 113 | 1.0 | 3.0 | 0.00 | 0.00 | 0.00 | 65 | 1008.2 |
| 20260510021549 | 80 | 0.0 | 2.0 | 0.00 | 0.00 | 0.00 | 64 | 1008.0 | |
| 20260510020549 | 80 | 0.0 | 2.0 | 0.00 | 0.00 | 0.00 | 63 | 1007.9 | |
| 20260510015549 | 80 | 0.0 | 3.0 | 0.00 | 0.00 | 0.00 | 62 | 1007.8 | |
| 20260510014549 | 81 | 0.0 | 1.0 | 0.00 | 0.00 | 0.00 | 61 | 1007.8 | |
| 20260510013609 | 81 | 0.0 | 2.0 | 0.00 | 0.00 | 0.00 | 60 | 1007.7 | |
| 20260510012549 | 82 | 0.0 | 1.0 | 0.00 | 0.00 | 0.00 | 59 | 1007.5 | |
| 20260510011549 | 82 | 135 | 1.0 | 2.0 | 0.00 | 0.00 | 0.00 | 58 | 1007.4 |
| 20260510010549 | 82 | 0.0 | 2.0 | 0.00 | 0.00 | 0.00 | 57 | 1007.3 | |
| 20260510005609 | 83 | 135 | 1.0 | 2.0 | 0.00 | 0.00 | 0.00 | 55 | 1007.2 |
| 20260510004549 | 84 | 135 | 1.0 | 2.0 | 0.00 | 0.00 | 0.00 | 53 | 1007.2 |
| 20260510003609 | 84 | 113 | 1.0 | 2.0 | 0.00 | 0.00 | 0.00 | 53 | 1007.3 |
| 20260510002549 | 84 | 90 | 1.0 | 3.0 | 0.00 | 0.00 | 0.00 | 53 | 1007.2 |
| 20260510001549 | 85 | 90 | 1.0 | 3.0 | 0.00 | 0.00 | 0.00 | 53 | 1007.3 |
| 20260510000549 | 85 | 0.0 | 0.0 | 0.00 | 0.00 | 0.00 | 53 | 1007.2 | |
| 20260509235549 | 85 | 45 | 1.0 | 2.0 | 0.00 | 0.00 | 0.00 | 52 | 1007.2 |
| 20260509234549 | 86 | 45 | 1.0 | 3.0 | 0.00 | 0.00 | 0.00 | 53 | 1007.2 |
| 20260509233549 | 86 | 45 | 1.0 | 3.0 | 0.00 | 0.00 | 0.00 | 52 | 1007.2 |
| 20260509232549 | 86 | 45 | 1.0 | 3.0 | 0.00 | 0.00 | 0.00 | 53 | 1007.3 |
| 20260509231549 | 86 | 113 | 2.0 | 4.0 | 0.00 | 0.00 | 0.00 | 52 | 1007.3 |
| 20260509230549 | 87 | 135 | 2.0 | 7.0 | 0.00 | 0.00 | 0.00 | 52 | 1007.4 |
| 20260509225549 | 86 | 113 | 1.0 | 4.0 | 0.00 | 0.00 | 0.00 | 53 | 1007.4 |
| 20260509224609 | 87 | 68 | 1.0 | 3.0 | 0.00 | 0.00 | 0.00 | 52 | 1007.3 |
| 20260509223549 | 89 | 113 | 3.0 | 10.0 | 0.00 | 0.00 | 0.00 | 52 | 1007.3 |
| 20260509222549 | 89 | 135 | 2.0 | 9.0 | 0.00 | 0.00 | 0.00 | 52 | 1007.4 |
| 20260509221549 | 89 | 113 | 1.0 | 4.0 | 0.00 | 0.00 | 0.00 | 52 | 1007.2 |
| 20260509220549 | 91 | 113 | 1.0 | 6.0 | 0.00 | 0.00 | 0.00 | 50 | 1007.3 |
| 20260509215609 | 91 | 113 | 2.0 | 6.0 | 0.00 | 0.00 | 0.00 | 53 | 1007.3 |
| 20260509214549 | 90 | 113 | 1.0 | 3.0 | 0.00 | 0.00 | 0.00 | 53 | 1007.5 |
| 20260509213549 | 90 | 90 | 1.0 | 4.0 | 0.00 | 0.00 | 0.00 | 53 | 1007.5 |
| 20260509212549 | 90 | 113 | 2.0 | 7.0 | 0.00 | 0.00 | 0.00 | 55 | 1007.7 |
| 20260509211549 | 89 | 113 | 2.0 | 11.0 | 0.00 | 0.00 | 0.00 | 54 | 1007.6 |
| 20260509210549 | 91 | 90 | 1.0 | 3.0 | 0.00 | 0.00 | 0.00 | 55 | 1007.9 |
| 20260509205609 | 88 | 90 | 2.0 | 6.0 | 0.00 | 0.00 | 0.00 | 57 | 1008.0 |
| 20260509204549 | 91 | 113 | 2.0 | 9.0 | 0.00 | 0.00 | 0.00 | 54 | 1008.1 |
| 20260509203609 | 90 | 68 | 2.0 | 4.0 | 0.00 | 0.00 | 0.00 | 54 | 1008.3 |
| 20260509202609 | 90 | 90 | 2.0 | 4.0 | 0.00 | 0.00 | 0.00 | 51 | 1008.5 |
| 20260509201549 | 90 | 90 | 1.0 | 3.0 | 0.00 | 0.00 | 0.00 | 58 | 1008.6 |
| 20260509200549 | 90 | 45 | 1.0 | 3.0 | 0.00 | 0.00 | 0.00 | 54 | 1008.6 |
| 20260509195609 | 88 | 135 | 2.0 | 6.0 | 0.00 | 0.00 | 0.00 | 60 | 1008.6 |
| 20260509194549 | 88 | 315 | 3.0 | 10.0 | 0.00 | 0.00 | 0.00 | 58 | 1008.7 |
| 20260509193549 | 90 | 113 | 1.0 | 4.0 | 0.00 | 0.00 | 0.00 | 58 | 1008.8 |
| 20260509192548 | 85 | 315 | 2.0 | 6.0 | 0.00 | 0.00 | 0.00 | 61 | 1008.9 |
| 20260509191548 | 87 | 0 | 2.0 | 7.0 | 0.00 | 0.00 | 0.00 | 62 | 1009.0 |
| 20260509190548 | 86 | 293 | 2.0 | 6.0 | 0.00 | 0.00 | 0.00 | 60 | 1009.1 |
| 20260509185608 | 87 | 23 | 2.0 | 6.0 | 0.00 | 0.00 | 0.00 | 60 | 1009.1 |
| 20260509184548 | 87 | 315 | 2.0 | 4.0 | 0.00 | 0.00 | 0.00 | 62 | 1009.1 |
| 20260509183629 | 86 | 23 | 1.0 | 7.0 | 0.00 | 0.00 | 0.00 | 65 | 1009.2 |
| 20260509182608 | 86 | 0 | 2.0 | 7.0 | 0.00 | 0.00 | 0.00 | 61 | 1009.2 |
| 20260509181548 | 86 | 23 | 2.0 | 5.0 | 0.00 | 0.00 | 0.00 | 65 | 1009.3 |
| 20260509180548 | 85 | 23 | 3.0 | 12.0 | 0.00 | 0.00 | 0.00 | 63 | 1009.5 |
| 20260509175548 | 84 | 338 | 3.0 | 10.0 | 0.00 | 0.00 | 0.00 | 68 | 1009.5 |
| 20260509174549 | 85 | 0 | 2.0 | 5.0 | 0.00 | 0.00 | 0.00 | 65 | 1009.6 |
| 20260509173548 | 84 | 0 | 1.0 | 4.0 | 0.00 | 0.00 | 0.00 | 66 | 1009.7 |
| 20260509172609 | 83 | 23 | 2.0 | 8.0 | 0.00 | 0.00 | 0.00 | 67 | 1009.9 |
| 20260509171548 | 83 | 0 | 2.0 | 8.0 | 0.00 | 0.00 | 0.00 | 68 | 1009.9 |
| 20260509170549 | 82 | 23 | 2.0 | 8.0 | 0.00 | 0.00 | 0.00 | 68 | 1009.9 |
| 20260509165548 | 81 | 23 | 2.0 | 8.0 | 0.00 | 0.00 | 0.00 | 70 | 1010.0 |